Location: Grantham
(50.0698°N, 112.0083°W)
Time: 22:20:18
(UTC+00:00)

ISS - Pass Details

Date: 03 December 2021
Orbit: 413 x 422 km, 51.6° (Epoch: 24 January)

Event Time Altitude Azimuth Distance (km) Brightness Sun altitude
Rises 02:08:53 0° 287° (WNW) 2,385 1.2 -24.8°
Reaches altitude 10° 02:11:03 10° 281° (W) 1,515 0.0 -25.2°
Enters shadow 02:13:15 32° 254° (WSW) 760 -1.9 -25.5°
